EW9309 Weather Reports


time (UTC)temp
C
wind
direction
speed
KPH
gust
KPH
rain 1hr
cm
rain 24hr
cm
rain mn
cm
humidity
%
barometer
mb
20190421150029 21 349 1.6 6.4 0.00 0.00 0.00 37 1012.7
20190421145521 21 349 0.0 6.4 0.00 0.00 0.00 38 1012.6
20190421145018 21 350 1.6 6.4 0.00 0.00 0.00 39 1012.6
20190421144524 21 350 3.2 8.0 0.00 0.00 0.00 40 1012.5
20190421144023 20 355 3.2 8.0 0.00 0.00 0.00 39 1012.5
20190421143522 20 281 0.0 3.2 0.00 0.00 0.00 42 1012.5
20190421143042 20 286 0.0 4.8 0.00 0.00 0.00 43 1012.4
20190421142517 19 286 1.6 4.8 0.00 0.00 0.00 44 1012.4
20190421142016 19 287 1.6 4.8 0.00 0.00 0.00 45 1012.4
20190421141525 18 153 0.0 0.0 0.00 0.00 0.00 44 1012.3
20190421141014 18 153 0.0 4.8 0.00 0.00 0.00 45 1012.2
20190421140516 18 152 0.0 4.8 0.00 0.00 0.00 45 1012.0
20190421140020 18 148 0.0 4.8 0.00 0.00 0.00 46 1012.0
20190421135513 18 148 0.0 4.8 0.00 0.00 0.00 46 1012.0
20190421135019 17 148 0.0 0.0 0.00 0.00 0.00 47 1011.9
20190421134516 17 148 0.0 0.0 0.00 0.00 0.00 46 1011.9
20190421134017 17 159 0.0 3.2 0.00 0.00 0.00 47 1011.8
20190421133515 17 155 0.0 3.2 0.00 0.00 0.00 46 1011.7
20190421133025 17 159 0.0 1.6 0.00 0.00 0.00 46 1011.7
20190421132516 17 149 0.0 4.8 0.00 0.00 0.00 46 1011.6
20190421132010 17 148 0.0 0.0 0.00 0.00 0.00 45 1011.6
20190421131526 17 148 0.0 0.0 0.00 0.00 0.00 45 1011.5
20190421131007 17 148 0.0 0.0 0.00 0.00 0.00 44 1011.3
20190421130511 17 149 0.0 1.6 0.00 0.00 0.00 44 1011.4
20190421130008 17 149 0.0 1.6 0.00 0.00 0.00 44 1011.3
20190421125505 17 149 0.0 0.0 0.00 0.00 0.00 43 1011.3
20190421125011 18 149 0.0 0.0 0.00 0.00 0.00 42 1011.2
20190421124504 18 149 0.0 0.0 0.00 0.00 0.00 41 1011.2
20190421124003 18 149 0.0 0.0 0.00 0.00 0.00 41 1011.2
20190421123502 18 149 0.0 0.0 0.00 0.00 0.00 41 1011.2
20190421123134 18 149 0.0 0.0 0.00 0.00 0.00 40 1011.2
20190421123004 18 149 0.0 0.0 0.00 0.00 0.00 40 1011.2
20190421122559 18 149 0.0 0.0 0.00 0.00 0.00 39 1011.3
20190421122101 18 149 0.0 0.0 0.00 0.00 0.00 39 1011.2
20190421121644 19 150 0.0 0.0 0.00 0.00 0.00 38 1011.0
20190421121058 19 150 0.0 0.0 0.00 0.00 0.00 38 1011.0
20190421120558 19 150 0.0 0.0 0.00 0.00 0.00 38 1011.1
20190421120151 19 151 0.0 0.0 0.00 0.00 0.00 38 1011.2
20190421115554 20 152 0.0 0.0 0.00 0.00 0.00 37 1011.1
20190421115053 20 152 0.0 0.0 0.00 0.00 0.00 36 1011.1
20190421114637 20 150 0.0 0.0 0.00 0.00 0.00 35 1011.1
20190421114051 20 150 0.0 0.0 0.00 0.00 0.00 35 1011.1
20190421113551 20 152 0.0 0.0 0.00 0.00 0.00 35 1011.0
20190421113136 20 153 0.0 1.6 0.00 0.00 0.00 35 1011.0
20190421112549 20 153 0.0 4.8 0.00 0.00 0.00 34 1010.9
20190421112048 20 149 1.6 8.0 0.00 0.00 0.00 34 1010.9
20190421111624 20 161 3.2 8.0 0.00 0.00 0.00 33 1010.9
20190421111045 21 228 1.6 4.8 0.00 0.00 0.00 33 1010.8
20190421110543 21 228 1.6 4.8 0.00 0.00 0.00 33 1010.8
20190421110149 21 225 0.0 3.2 0.00 0.00 0.00 32 1010.7
20190421105541 21 225 0.0 4.8 0.00 0.00 0.00 32 1010.7
20190421105040 21 225 1.6 6.4 0.00 0.00 0.00 32 1010.6
20190421104609 22 125 1.6 6.4 0.00 0.00 0.00 31 1010.5
20190421104043 22 169 0.0 3.2 0.00 0.00 0.00 31 1010.5
20190421103538 22 169 0.0 8.0 0.00 0.00 0.00 32 1010.3
20190421103117 22 169 0.0 8.0 0.00 0.00 0.00 31 1010.2
20190421102541 22 169 4.8 8.0 0.00 0.00 0.00 31 1010.2
20190421102040 22 261 1.6 9.7 0.00 0.00 0.00 30 1010.0
20190421101636 22 262 1.6 6.4 0.00 0.00 0.00 30 1009.9
20190421101040 22 281 1.6 9.7 0.00 0.00 0.00 31 1009.9
20190421100535 22 239 1.6 9.7 0.00 0.00 0.00 31 1010.0
20190421100047 22 123 3.2 6.4 0.00 0.00 0.00 31 1010.0
20190421095533 22 124 1.6 6.4 0.00 0.00 0.00 30 1010.0
20190421095032 22 124 1.6 6.4 0.00 0.00 0.00 30 1010.0
20190421094628 22 124 1.6 6.4 0.00 0.00 0.00 30 1010.1
20190421094031 22 62 3.2 6.4 0.00 0.00 0.00 29 1010.1
20190421093529 23 160 1.6 6.4 0.00 0.00 0.00 30 1010.1
20190421093105 23 206 0.0 9.7 0.00 0.00 0.00 29 1010.1
20190421092528 23 213 1.6 9.7 0.00 0.00 0.00 29 1010.1
20190421092033 23 229 0.0 17.7 0.00 0.00 0.00 29 1009.9
20190421091601 23 218 3.2 17.7 0.00 0.00 0.00 28 1009.8
20190421091032 23 208 4.8 14.5 0.00 0.00 0.00 28 1009.7
20190421090530 23 226 3.2 16.1 0.00 0.00 0.00 28 1009.8
20190421090116 23 225 6.4 16.1 0.00 0.00 0.00 28 1009.8
20190421085530 23 234 6.4 14.5 0.00 0.00 0.00 28 1009.8
20190421085026 23 229 4.8 14.5 0.00 0.00 0.00 28 1009.7
20190421084545 23 221 4.8 12.9 0.00 0.00 0.00 28 1009.8
20190421084027 23 224 4.8 12.9 0.00 0.00 0.00 28 1009.8
20190421083526 23 218 3.2 11.3 0.00 0.00 0.00 28 1009.8
20190421083114 23 101 3.2 6.4 0.00 0.00 0.00 28 1009.8
20190421082523 23 78 0.0 3.2 0.00 0.00 0.00 27 1009.8
20190421082022 23 79 0.0 6.4 0.00 0.00 0.00 26 1009.9
20190421081551 23 79 3.2 6.4 0.00 0.00 0.00 26 1010.0
20190421081021 23 79 0.0 6.4 0.00 0.00 0.00 25 1010.0
20190421080520 23 79 3.2 6.4 0.00 0.00 0.00 25 1010.1
20190421080045 24 206 1.6 4.8 0.00 0.00 0.00 25 1010.1
20190421073514 24 201 3.2 12.9 0.00 0.00 0.00 23 1009.7
20190421073020 24 184 3.2 14.5 0.00 0.00 0.00 23 1009.7
20190421072515 25 137 0.0 11.3 0.00 0.00 0.00 22 1009.6
20190421072011 25 188 1.6 6.4 0.00 0.00 0.00 22 1009.7
20190421071521 25 81 0.0 4.8 0.00 0.00 0.00 21 1009.6
20190421071004 25 82 0.0 4.8 0.00 0.00 0.00 21 1009.6
20190421070502 25 83 0.0 6.4 0.00 0.00 0.00 21 1009.4
20190421065602 25 127 0.0 6.4 0.00 0.00 0.00 20 1009.4
20190421055040 26 258 9.7 19.3 0.00 0.00 0.00 18 1008.8
20190421054636 27 248 9.7 27.4 0.00 0.00 0.00 19 1008.8
20190421054046 26 227 9.7 27.4 0.00 0.00 0.00 19 1008.8
20190421053547 26 235 9.7 22.5 0.00 0.00 0.00 19 1008.8
20190421053135 26 244 8.0 20.9 0.00 0.00 0.00 19 1008.8
20190421052540 26 224 8.0 20.9 0.00 0.00 0.00 20 1008.9
20190421052041 26 231 8.0 20.9 0.00 0.00 0.00 20 1008.9
20190421051608 26 231 4.8 14.5 0.00 0.00 0.00 20 1008.9
20190421051039 27 257 4.8 14.5 0.00 0.00 0.00 19 1008.9
20190421050545 27 241 3.2 16.1 0.00 0.00 0.00 19 1008.8
20190421050255 27 253 6.4 16.1 0.00 0.00 0.00 20 1008.8
20190421045538 27 207 3.2 12.9 0.00 0.00 0.00 20 1008.8
20190421045047 27 237 3.2 12.9 0.00 0.00 0.00 20 1008.7
20190421044645 27 213 4.8 14.5 0.00 0.00 0.00 19 1008.7
20190421044038 27 240 4.8 14.5 0.00 0.00 0.00 19 1008.7
20190421043541 27 183 6.4 12.9 0.00 0.00 0.00 19 1008.6
20190421043108 27 245 4.8 12.9 0.00 0.00 0.00 19 1008.6
20190421042538 27 235 4.8 12.9 0.00 0.00 0.00 19 1008.5
20190421042043 27 248 6.4 12.9 0.00 0.00 0.00 19 1008.5
20190421041625 28 240 3.2 11.3 0.00 0.00 0.00 19 1008.4
20190421041045 28 221 3.2 11.3 0.00 0.00 0.00 19 1008.4
20190421040536 28 200 3.2 12.9 0.00 0.00 0.00 19 1008.4
20190421040127 28 186 4.8 12.9 0.00 0.00 0.00 19 1008.4
20190421035537 28 223 3.2 11.3 0.00 0.00 0.00 18 1008.3
20190421035035 28 223 3.2 12.9 0.00 0.00 0.00 18 1008.2
20190421034559 28 225 4.8 16.1 0.00 0.00 0.00 18 1008.1
20190421034034 28 259 9.7 17.7 0.00 0.00 0.00 19 1008.1
20190421033102 27 250 4.8 11.3 0.00 0.00 0.00 19 1008.0
20190421032534 27 232 1.6 8.0 0.00 0.00 0.00 19 1007.9
20190421032032 28 232 0.0 4.8 0.00 0.00 0.00 19 1007.8
20190421031558 28 232 1.6 4.8 0.00 0.00 0.00 18 1007.8
20190421031033 28 232 0.0 9.7 0.00 0.00 0.00 18 1007.7
20190421030533 28 233 3.2 9.7 0.00 0.00 0.00 17 1007.6
20190421030116 28 237 1.6 6.4 0.00 0.00 0.00 17 1007.5
20190421025532 28 248 1.6 9.7 0.00 0.00 0.00 17 1007.5
20190421025032 28 244 3.2 9.7 0.00 0.00 0.00 17 1007.5
20190421024607 28 243 3.2 8.0 0.00 0.00 0.00 17 1007.5
20190421024035 28 253 3.2 8.0 0.00 0.00 0.00 17 1007.4
20190421023533 28 243 1.6 12.9 0.00 0.00 0.00 17 1007.4
20190421023117 29 248 4.8 12.9 0.00 0.00 0.00 16 1007.3
20190421022533 29 259 3.2 9.7 0.00 0.00 0.00 16 1007.4
20190421022030 29 251 4.8 9.7 0.00 0.00 0.00 16 1007.3
20190421021544 30 247 3.2 8.0 0.00 0.00 0.00 16 1007.3
20190421021033 30 242 3.2 11.3 0.00 0.00 0.00 16 1007.3
20190421020530 30 234 4.8 14.5 0.00 0.00 0.00 15 1007.2
20190421020048 30 242 8.0 14.5 0.00 0.00 0.00 15 1007.3
20190421015532 30 238 4.8 17.7 0.00 0.00 0.00 15 1007.3
20190421015029 30 263 4.8 14.5 0.00 0.00 0.00 15 1007.3
20190421014628 31 234 6.4 14.5 0.00 0.00 0.00 15 1007.3
20190421014029 31 241 6.4 12.9 0.00 0.00 0.00 15 1007.1
20190421013534 31 266 4.8 16.1 0.00 0.00 0.00 15 1007.2
20190421013049 31 245 6.4 25.7 0.00 0.00 0.00 14 1007.2
20190421012528 31 211 9.7 25.7 0.00 0.00 0.00 14 1007.2
20190421012037 31 247 9.7 24.1 0.00 0.00 0.00 15 1007.2
20190421011625 31 186 8.0 25.7 0.00 0.00 0.00 15 1007.2
20190421011030 31 231 9.7 25.7 0.00 0.00 0.00 15 1007.3
20190421010527 31 223 3.2 16.1 0.00 0.00 0.00 15 1007.3
20190421010036 31 267 6.4 17.7 0.00 0.00 0.00 15 1007.3
20190421005537 31 223 6.4 19.3 0.00 0.00 0.00 15 1007.4
20190421005030 32 248 6.4 19.3 0.00 0.00 0.00 14 1007.4
20190421004533 32 257 8.0 20.9 0.00 0.00 0.00 15 1007.5
20190421004025 32 250 11.3 20.9 0.00 0.00 0.00 15 1007.5
20190421003524 32 265 6.4 19.3 0.00 0.00 0.00 15 1007.5
20190421003053 32 242 9.7 19.3 0.00 0.00 0.00 14 1007.5
20190421002528 32 225 8.0 22.5 0.00 0.00 0.00 15 1007.5
20190421002023 32 268 9.7 29.0 0.00 0.00 0.00 15 1007.6
20190421001654 32 235 12.9 29.0 0.00 0.00 0.00 14 1007.6
20190421001023 32 224 8.0 20.9 0.00 0.00 0.00 14 1007.6
20190421000534 32 275 8.0 17.7 0.00 0.00 0.00 14 1007.6
20190421000033 32 157 9.7 22.5 0.00 0.00 0.00 14 1007.6
20190420235522 32 229 11.3 24.1 0.00 0.00 0.00 13 1007.6
20190420235026 33 246 9.7 20.9 0.00 0.00 0.00 14 1007.8
20190420234603 33 219 6.4 19.3 0.00 0.00 0.00 13 1007.7
20190420234024 33 216 8.0 20.9 0.00 0.00 0.00 13 1007.7
20190420233520 32 233 8.0 25.7 0.00 0.00 0.00 14 1007.7
20190420233112 33 233 12.9 29.0 0.00 0.00 0.00 13 1007.7
20190420232523 33 257 11.3 29.0 0.00 0.00 0.00 13 1007.7
20190420232019 33 234 6.4 24.1 0.00 0.00 0.00 13 1007.7
20190420231559 33 206 9.7 24.1 0.00 0.00 0.00 13 1007.8
20190420231018 33 157 11.3 24.1 0.00 0.00 0.00 12 1007.9
20190420230518 33 265 9.7 25.7 0.00 0.00 0.00 12 1007.9
20190420230052 33 233 8.0 29.0 0.00 0.00 0.00 12 1007.9
20190420225517 33 259 12.9 29.0 0.00 0.00 0.00 12 1007.9
20190420225020 33 186 4.8 29.0 0.00 0.00 0.00 12 1007.9
20190420224540 33 224 12.9 29.0 0.00 0.00 0.00 12 1008.0
20190420224015 33 234 11.3 27.4 0.00 0.00 0.00 12 1008.0
20190420223514 33 302 14.5 27.4 0.00 0.00 0.00 12 1008.1
20190420223051 33 220 12.9 24.1 0.00 0.00 0.00 12 1008.2
20190420222513 33 286 9.7 22.5 0.00 0.00 0.00 13 1008.3
20190420222013 33 242 9.7 19.3 0.00 0.00 0.00 12 1008.2
20190420221516 33 269 4.8 25.7 0.00 0.00 0.00 13 1008.2
20190420221012 33 183 12.9 25.7 0.00 0.00 0.00 12 1008.2
20190420220512 33 213 8.0 25.7 0.00 0.00 0.00 13 1008.2
20190420220018 33 275 12.9 25.7 0.00 0.00 0.00 12 1008.3
20190420215513 33 246 9.7 22.5 0.00 0.00 0.00 12 1008.4
20190420215012 33 234 9.7 22.5 0.00 0.00 0.00 12 1008.5
20190420214531 33 230 9.7 29.0 0.00 0.00 0.00 12 1008.6
20190420214009 33 254 8.0 29.0 0.00 0.00 0.00 12 1008.6
20190420213509 33 246 4.8 22.5 0.00 0.00 0.00 12 1008.8
20190420213031 33 277 8.0 25.7 0.00 0.00 0.00 12 1008.8
20190420212516 33 215 8.0 27.4 0.00 0.00 0.00 12 1008.9
20190420212013 33 153 6.4 27.4 0.00 0.00 0.00 12 1009.0
20190420211517 33 287 11.3 20.9 0.00 0.00 0.00 11 1009.0
20190420211008 33 227 9.7 22.5 0.00 0.00 0.00 12 1008.9
20190420210508 33 235 11.3 25.7 0.00 0.00 0.00 12 1009.1
20190420210011 33 254 14.5 25.7 0.00 0.00 0.00 11 1009.1
20190420205509 33 264 11.3 22.5 0.00 0.00 0.00 12 1009.1
20190420205007 33 219 11.3 20.9 0.00 0.00 0.00 12 1009.1
20190420204520 33 282 4.8 17.7 0.00 0.00 0.00 11 1009.0
20190420203508 33 234 6.4 19.3 0.00 0.00 0.00 12 1009.3
20190420203042 33 228 6.4 19.3 0.00 0.00 0.00 12 1009.2
20190420202506 33 196 11.3 19.3 0.00 0.00 0.00 12 1009.3
20190420202006 33 261 4.8 16.1 0.00 0.00 0.00 13 1009.3
20190420201514 33 226 4.8 16.1 0.00 0.00 0.00 12 1009.3
20190420201006 33 285 6.4 16.1 0.00 0.00 0.00 12 1009.4
20190420200510 33 249 6.4 16.1 0.00 0.00 0.00 12 1009.5
20190420200007 33 225 4.8 16.1 0.00 0.00 0.00 12 1009.5
20190420195507 33 226 3.2 16.1 0.00 0.00 0.00 12 1009.4
20190420195006 33 185 6.4 16.1 0.00 0.00 0.00 12 1009.6
20190420194504 33 292 6.4 16.1 0.00 0.00 0.00 12 1009.5
20190420194006 32 165 4.8 19.3 0.00 0.00 0.00 12 1009.6
20190420193501 33 225 6.4 19.3 0.00 0.00 0.00 13 1009.6
20190420193004 32 250 6.4 16.1 0.00 0.00 0.00 14 1009.6
20190420192502 32 238 4.8 12.9 0.00 0.00 0.00 13 1009.7
20190420192001 33 148 4.8 17.7 0.00 0.00 0.00 13 1009.6
20190420191501 32 266 4.8 24.1 0.00 0.00 0.00 13 1009.9
20190420191002 32 247 9.7 19.3 0.00 0.00 0.00 12 1009.8
20190420190501 33 228 3.2 12.9 0.00 0.00 0.00 13 1009.8
20190420185603 32 163 6.4 20.9 0.00 0.00 0.00 12 1009.9
20190420185059 31 211 3.2 20.9 0.00 0.00 0.00 12 1009.9
20190420184630 32 232 6.4 17.7 0.00 0.00 0.00 11 1009.9
20190420184059 32 217 3.2 14.5 0.00 0.00 0.00 11 1010.0
20190420183557 32 166 6.4 14.5 0.00 0.00 0.00 13 1010.0
20190420183145 32 116 4.8 11.3 0.00 0.00 0.00 13 1009.9
20190420182554 32 236 1.6 4.8 0.00 0.00 0.00 14 1010.0
20190420182053 31 238 1.6 9.7 0.00 0.00 0.00 14 1010.1
20190420181700 31 273 1.6 9.7 0.00 0.00 0.00 14 1010.1
20190420181056 30 167 4.8 12.9 0.00 0.00 0.00 15 1010.1
20190420180556 30 294 0.0 12.9 0.00 0.00 0.00 15 1010.2
20190420180152 31 286 1.6 14.5 0.00 0.00 0.00 17 1010.4
20190420175556 31 68 4.8 14.5 0.00 0.00 0.00 16 1010.4
20190420175049 30 46 3.2 9.7 0.00 0.00 0.00 15 1010.4
20190420174648 30 39 3.2 9.7 0.00 0.00 0.00 16 1010.5
20190420174047 30 288 4.8 16.1 0.00 0.00 0.00 18 1010.7
20190420173546 29 292 4.8 16.1 0.00 0.00 0.00 18 1010.7
20190420173117 30 299 8.0 16.1 0.00 0.00 0.00 18 1010.7
20190420172545 29 288 6.4 14.5 0.00 0.00 0.00 18 1010.8
20190420172046 29 327 6.4 14.5 0.00 0.00 0.00 18 1010.8
20190420171634 29 286 6.4 14.5 0.00 0.00 0.00 19 1010.7
20190420171042 28 280 8.0 14.5 0.00 0.00 0.00 19 1010.6
20190420170540 29 306 8.0 16.1 0.00 0.00 0.00 19 1010.6
20190420170133 28 348 0.0 6.4 0.00 0.00 0.00 19 1010.5
20190420165538 28 292 3.2 8.0 0.00 0.00 0.00 19 1010.5
20190420165038 28 270 3.2 12.9 0.00 0.00 0.00 21 1010.6
20190420164616 28 261 6.4 11.3 0.00 0.00 0.00 20 1010.5
20190420164035 28 285 1.6 8.0 0.00 0.00 0.00 22 1010.5
20190420163534 28 275 4.8 8.0 0.00 0.00 0.00 21 1010.5
20190420163116 27 37 0.0 4.8 0.00 0.00 0.00 21 1010.5
20190420162538 28 37 1.6 6.4 0.00 0.00 0.00 20 1010.4
20190420162031 27 35 1.6 8.0 0.00 0.00 0.00 22 1010.5
20190420161608 27 34 1.6 8.0 0.00 0.00 0.00 23 1010.5
20190420161030 27 39 1.6 8.0 0.00 0.00 0.00 23 1010.4
20190420160529 27 40 1.6 8.0 0.00 0.00 0.00 23 1010.4
20190420160052 27 50 3.2 6.4 0.00 0.00 0.00 20 1010.4
20190420155527 26 50 3.2 6.4 0.00 0.00 0.00 21 1010.5
20190420155032 26 49 1.6 6.4 0.00 0.00 0.00 23 1010.6
20190420154619 25 49 1.6 6.4 0.00 0.00 0.00 24 1010.5
20190420154025 25 69 1.6 6.4 0.00 0.00 0.00 25 1010.6
20190420153524 25 69 1.6 6.4 0.00 0.00 0.00 27 1010.6
20190420153050 24 69 0.0 6.4 0.00 0.00 0.00 26 1010.5
20190420152523 24 69 3.2 8.0 0.00 0.00 0.00 27 1010.5
20190420152028 23 69 3.2 8.0 0.00 0.00 0.00 28 1010.4
20190420151556 23 59 1.6 4.8 0.00 0.00 0.00 28 1010.6
20190420151021 23 158 0.0 0.0 0.00 0.00 0.00 30 1010.6
20190420150524 22 159 0.0 1.6 0.00 0.00 0.00 31 1010.8